| time (UTC) | temp C | wind direction | speed KPH | gust KPH | rain 1hr cm | rain 24hr cm | rain mn cm | humidity % | barometer mb |
| 20260505124825 | 16 | 154 | 0.0 | 0.0 | 0.00 | 0.00 | 0.00 | 73 | 1016.4 |
| 20260505123326 | 15 | 149 | 0.0 | 0.0 | 0.00 | 0.00 | 0.00 | 76 | 1016.4 |
| 20260505121822 | 14 | 147 | 0.0 | 0.0 | 0.00 | 0.00 | 0.00 | 77 | 1016.4 |
| 20260505120324 | 13 | 142 | 0.0 | 0.0 | 0.00 | 0.00 | 0.00 | 78 | 1016.3 |
| 20260505114820 | 13 | 142 | 0.0 | 0.0 | 0.00 | 0.00 | 0.00 | 80 | 1016.3 |
| 20260505113341 | 12 | 142 | 0.0 | 0.0 | 0.00 | 0.00 | 0.00 | 81 | 1016.2 |
| 20260505013319 | 19 | 180 | 0.0 | 6.4 | 0.00 | 0.00 | 0.00 | 47 | 1014.8 |
| 20260505011814 | 19 | 183 | 0.0 | 4.8 | 0.00 | 0.00 | 0.00 | 44 | 1014.5 |
| 20260505010316 | 20 | 186 | 0.0 | 0.0 | 0.00 | 0.00 | 0.00 | 41 | 1014.3 |
| 20260505004815 | 20 | 186 | 0.0 | 0.0 | 0.00 | 0.00 | 0.00 | 42 | 1014.1 |
| 20260505003315 | 21 | 186 | 0.0 | 0.0 | 0.00 | 0.00 | 0.00 | 38 | 1013.8 |
| 20260505001814 | 22 | 186 | 0.0 | 0.0 | 0.00 | 0.00 | 0.00 | 36 | 1013.7 |
| 20260505000316 | 22 | 185 | 0.0 | 0.0 | 0.00 | 0.00 | 0.00 | 35 | 1013.6 |
| 20260504234814 | 22 | 179 | 0.0 | 0.0 | 0.00 | 0.00 | 0.00 | 34 | 1013.5 |
| 20260504233331 | 23 | 180 | 0.0 | 4.8 | 0.00 | 0.00 | 0.00 | 32 | 1013.3 |
| 20260504231814 | 23 | 198 | 3.2 | 12.9 | 0.00 | 0.00 | 0.00 | 31 | 1013.3 |
| 20260504230331 | 24 | 170 | 3.2 | 11.3 | 0.00 | 0.00 | 0.00 | 31 | 1013.3 |
| 20260504224814 | 25 | 177 | 1.6 | 12.9 | 0.00 | 0.00 | 0.00 | 30 | 1013.3 |
| 20260504223330 | 25 | 214 | 4.8 | 11.3 | 0.00 | 0.00 | 0.00 | 28 | 1013.2 |
| 20260504221814 | 25 | 172 | 3.2 | 12.9 | 0.00 | 0.00 | 0.00 | 29 | 1013.2 |
| 20260504220313 | 25 | 165 | 0.0 | 14.5 | 0.00 | 0.00 | 0.00 | 28 | 1013.2 |
| 20260504214813 | 26 | 179 | 4.8 | 9.7 | 0.00 | 0.00 | 0.00 | 27 | 1013.0 |
| 20260504213330 | 26 | 178 | 0.0 | 8.0 | 0.00 | 0.00 | 0.00 | 26 | 1013.2 |
| 20260504211831 | 26 | 176 | 1.6 | 9.7 | 0.00 | 0.00 | 0.00 | 27 | 1013.2 |
| 20260504210328 | 26 | 178 | 1.6 | 8.0 | 0.00 | 0.00 | 0.00 | 27 | 1013.1 |
| 20260504204825 | 26 | 243 | 0.0 | 8.0 | 0.00 | 0.00 | 0.00 | 26 | 1013.3 |
| 20260504203326 | 26 | 164 | 0.0 | 9.7 | 0.00 | 0.00 | 0.00 | 26 | 1013.5 |
| 20260504201823 | 26 | 183 | 3.2 | 8.0 | 0.00 | 0.00 | 0.00 | 25 | 1013.7 |
| 20260504200343 | 26 | 155 | 1.6 | 12.9 | 0.00 | 0.00 | 0.00 | 27 | 1013.8 |
| 20260504194819 | 26 | 205 | 1.6 | 14.5 | 0.00 | 0.00 | 0.00 | 27 | 1013.9 |
| 20260504193319 | 26 | 149 | 0.0 | 8.0 | 0.00 | 0.00 | 0.00 | 28 | 1014.1 |
| 20260504191815 | 25 | 168 | 6.4 | 17.7 | 0.00 | 0.00 | 0.00 | 27 | 1014.3 |
| 20260504190315 | 26 | 191 | 0.0 | 4.8 | 0.00 | 0.00 | 0.00 | 27 | 1014.5 |
| 20260504184814 | 25 | 224 | 3.2 | 11.3 | 0.00 | 0.00 | 0.00 | 26 | 1014.8 |
| 20260504183350 | 25 | 280 | 0.0 | 6.4 | 0.00 | 0.00 | 0.00 | 24 | 1014.9 |
| 20260504181831 | 25 | 176 | 1.6 | 9.7 | 0.00 | 0.00 | 0.00 | 22 | 1015.1 |
| 20260504180328 | 24 | 174 | 0.0 | 14.5 | 0.00 | 0.00 | 0.00 | 28 | 1015.3 |
| 20260504174829 | 25 | 257 | 1.6 | 12.9 | 0.00 | 0.00 | 0.00 | 26 | 1015.4 |
| 20260504173326 | 24 | 166 | 4.8 | 14.5 | 0.00 | 0.00 | 0.00 | 23 | 1015.5 |
| 20260504171828 | 24 | 338 | 3.2 | 8.0 | 0.00 | 0.00 | 0.00 | 25 | 1015.8 |
| 20260504170324 | 23 | 182 | 3.2 | 9.7 | 0.00 | 0.00 | 0.00 | 28 | 1015.8 |
| 20260504160319 | 22 | 198 | 1.6 | 11.3 | 0.00 | 0.00 | 0.00 | 34 | 1016.4 |
| 20260504150316 | 21 | 232 | 0.0 | 8.0 | 0.00 | 0.00 | 0.00 | 40 | 1016.9 |
| 20260504140332 | 20 | 188 | 0.0 | 4.8 | 0.00 | 0.00 | 0.00 | 45 | 1016.9 |